Regional Weather Roundup
Issued by NWS

Home | Current Version | Previous Version | Graphics & Text | Print | Product List | Glossary On
Versions: 1 2 3 4 5 6 7 8 9 10 11 12 13 14 15 16 17 18 19 20 21 22 23 24 25 26 27 28 29 30 31 32 33 34 35 36 37 38 39 40 41 42 43 44 45 46 47 48 49 50
000
ASUS43 KMPX 210710
RWRMN
WEATHER ROUNDUP FOR MINNESOTA
NATIONAL WEATHER SERVICE TWIN CITIES/CHANHASSEN MN
100 AM CST FRI NOV 21 2014


NOTE: "FAIR" INDICATES FEW OR NO CLOUDS BELOW 12,000 FEET WITH NO
SIGNIFICANT WEATHER AND/OR OBSTRUCTIONS TO VISIBILITY. N/A MEANS
CURRENT SKY AND/OR WEATHER CONDITIONS ARE NOT AVAILABLE.

MNZ060>063-068>070-210800-
   Twin Cities Metro

CITY           SKY/WX    TMP DP  RH WIND       PRES   REMARKS
TWIN CITIES    PTCLDY     6   2  83 SW5       30.27S WCI  -3
ST PAUL        MOCLDY     6   2  83 SE3       30.29F
CRYSTAL        PTCLDY     2  -1  88 CALM      30.26R
BLAINE         MOCLDY     5   1  85 CALM      30.25S
LAKEVILLE      PTCLDY    -2  -4  92 CALM      30.27R
EDEN PRAIRIE   PTCLDY     4   0  83 S5        30.26R WCI  -5
SOUTH ST PAUL  MOCLDY     5   1  84 CALM      30.28S
LAKE ELMO      FAIR       0  -6  78 CALM      30.27S
$$
MNZ001>005-007-008-013>017-022>024-027-028-210800-
   Northwest Minnesota

CITY           SKY/WX    TMP DP  RH WIND       PRES   REMARKS
BEMIDJI        PTCLDY     6   1  81 S8        30.07F WCI  -7
HALLOCK        MOCLDY    16   9  73 S21       29.96F WCI  -2
ROSEAU         FAIR      10   3  72 S10       30.00F WCI  -3
WARROAD        PTCLDY    10   3  72 S7        30.01F WCI   0
THIEF RVR FALL CLOUDY    12  10  92 S16       30.03F WCI  -4
CROOKSTON      PTCLDY    12   7  79 S15       30.06F WCI  -4
FOSSTON        MOCLDY     9   3  78 S10       30.06S WCI  -6
DETROIT LAKES  MOCLDY    12   9  85 S12       30.09F WCI  -2
MOORHEAD       CLEAR     10   7  85 S15       30.10F WCI  -6
PARK RAPIDS    MOCLDY     6   2  83 S7        30.10F WCI  -6
MAHNOMEN       FAIR      10   5  77 S15       30.06F WCI  -6
$$
MNZ006-009>011-018-025>026-210800-
   North Central Minnesota

CITY           SKY/WX    TMP DP  RH WIND       PRES   REMARKS
BAUDETTE       MOCLDY     6   1  80 S5        30.03F WCI  -3
FLAG ISLAND    MOCLDY    12   7  79 S13       30.00F WCI  -3
INTL FALLS     PTCLDY     0  -5  79 CALM      30.09F
WASKISH        PTCLDY     7   3  85 CALM      30.07F
BIG FORK       PTCLDY    -2  -8  78 CALM      30.10F
LONGVILLE      MOCLDY    -6  -8  92 CALM      30.14R
GRAND RAPIDS   PTCLDY    -4  -8  84 S7        30.11S WCI -18
CRANE LAKE     PTCLDY    -6  -8  92 CALM      30.13F
ORR            PTCLDY    -2  -8  78 CALM      30.08S
COOK           PTCLDY    -8 -13  77 CALM      30.12R
WALKER         FAIR       6   1  80 S6        30.11S WCI  -4
$$
MNZ012-019>021-037-210800-
   Northeast Minnesota

CITY           SKY/WX    TMP DP  RH WIND       PRES   REMARKS
DULUTH         PTCLDY     1  -5  75 SW5       30.14S WCI  -9
ELY            MOCLDY    -8 -11  84 CALM      30.11F
HIBBING        PTCLDY   -11 -18  71 CALM      30.13F
EVELETH        PTCLDY    -8 -13  77 CALM      30.14S
DULUTH HARBOR  PTCLDY     5  -2  72 CALM      30.23S
TWO HARBORS    PTCLDY     1  -6  71 W6        30.15S WCI -10
SILVER BAY     PTCLDY     1  -4  78 CALM      30.15R
GRAND MARAIS     N/A      3  -3  76 NW3       30.19R
G MARAIS ARPRT CLEAR     -2  -8  78 W2        30.05S
$$
MNZ029>031-032-039>041-046>048-054>057-064-210800-
   West Central Minnesota

CITY           SKY/WX    TMP DP  RH WIND       PRES   REMARKS
FERGUS FALLS   PTCLDY     7   1  78 S12       30.18R WCI  -9
WHEATON        PTCLDY     5   1  85 SE10      30.15S WCI -10
MORRIS         PTCLDY     1  -2  85 SE9       30.14F WCI -14
ALEXANDRIA     PTCLDY     7   2  80 S8        30.14F WCI  -6
ELBOW LAKE       N/A      5   1  83 SE9       30.14S WCI  -9
WADENA         MOCLDY     9   3  78 S8        30.12S WCI  -4
GLENWOOD       PTCLDY     1   0  92 SE6       30.16F WCI -10
APPLETON       PTCLDY     5   1  85 S6        30.17F WCI  -6
BENSON         CLEAR      3   0  85 S7        30.17S WCI  -9
ORTONVILLE     PTCLDY     1  -2  85 SE7       30.15S WCI -11
MADISON        PTCLDY     1  -2  85 S8        30.17S WCI -12
WILLMAR        FAIR      -2  -8  78 SE3       30.20S
$$
MNZ033>034-036-042>043-049>051-058-059-210800-
   Central Minnesota

CITY           SKY/WX    TMP DP  RH WIND       PRES   REMARKS
ST CLOUD       PTCLDY    -4 -10  75 SE5       30.22F WCI -15
SAUK CENTRE    FAIR      -2  -5  87 SE5       30.18F WCI -12
PAYNESVILLE    MOCLDY    -8 -11  89 E3        30.20F
AITKIN         MOCLDY     0  -8  71 CALM      30.16R
PINE RIVER     PTCLDY     0  -4  85 CALM      30.18S
BRAINERD       MOCLDY    -4  -7  87 S3        30.17F
STAPLES        PTCLDY     3   1  92 S5        30.14F WCI  -6
LONG PRAIRIE   FAIR       3   0  85 S3        30.17S
LITTLE FALLS   PTCLDY     1  -2  85 CALM      30.19F
LITCHFIELD     FAIR       0  -2  92 CALM      30.23R
BUFFALO        PTCLDY    -3  -7  83 CALM      30.26S
MAPLE LAKE     PTCLDY    -3  -6  87 CALM      30.24F
$$
MNZ037-044-045-052-053-210800-
   East Central Minnesota

CITY           SKY/WX    TMP DP  RH WIND       PRES   REMARKS
PRINCETON      PTCLDY    -4  -8  84 CALM      30.22S
MORA             N/A    N/A N/A N/A MISG        N/A
CAMBRIDGE      PTCLDY    -2  -9  71 CALM      30.22F
RUSH CITY      MOCLDY    -1  -4  87 CALM      30.25R
MOOSE LAKE     PTCLDY    -8 -13  77 CALM      30.19R
HINCKLEY       FAIR      -8 -11  84 CALM      30.23R
CLOQUET        PTCLDY    -2  -8  78 SW7       30.17R WCI -16
MCGREGOR       MOCLDY    -2  -6  84 CALM      30.17S
$$
MNZ071>073-080-081-089-090-097-098-210800-
   Southwest Minnesota

CITY           SKY/WX    TMP DP  RH WIND       PRES   REMARKS
MONTEVIDEO     PTCLDY     3   1  92 S6        30.19F WCI  -8
GRANITE FALLS  PTCLDY     3   0  87 SE8       30.21S WCI -10
CANBY          MOCLDY     5   2  86 SE7       30.16F WCI  -7
MARSHALL       MOCLDY     7   1  78 S9        30.17F WCI  -7
REDWOOD FALLS  PTCLDY     2  -3  80 S6        30.21F WCI  -9
OLIVIA         PTCLDY     5   1  85 SE6       30.21S WCI  -6
PIPESTONE      PTCLDY    10   7  85 S12       30.14S WCI  -4
WINDOM         PTCLDY     7   5  92 S5        30.19F WCI  -2
WORTHINGTON    PTCLDY     7   5  92 S9        30.19S WCI  -7
JACKSON        MOCLDY    10   5  79 S8        30.22S WCI  -1
TRACY          PTCLDY    11   6  81 S12       30.18S WCI  -3
SLAYTON        PTCLDY     6   3  89 S9        30.17F WCI  -8
$$
MNZ065>067-074>077-082>085-091>093-210800-
   South Central Minnesota

CITY           SKY/WX    TMP DP  RH WIND       PRES   REMARKS
MANKATO        PTCLDY     5   0  78 S8        30.25F WCI  -8
NEW ULM        PTCLDY     3   0  85 S7        30.23F WCI  -9
ST JAMES       PTCLDY     7   1  78 SE7       30.25F WCI  -5
FAIRMONT       PTCLDY     0  -6  78 S7        30.23F WCI -13
GLENCOE        PTCLDY     1  -2  88 CALM      30.25R
FARIBAULT      CLEAR      0  -6  78 CALM      30.26S
OWATONNA       PTCLDY     3   0  85 SE5       30.25F WCI  -6
WASECA         PTCLDY     0  -6  78 S3        30.28R
ALBERT LEA       N/A      3   0  85 S2        30.25F
$$
MNZ078>079-086>088-094>096-210800-
   Southeast Minnesota

CITY           SKY/WX    TMP DP  RH WIND       PRES   REMARKS
ROCHESTER      PTCLDY     0  -4  83 SW7       30.26R WCI -13
RED WING         N/A     -2  -8  78 CALM      30.29S
STANTON        FAIR      -1  -5  82 S3        30.27R
DODGE CENTER   FLURRIES   1  -2  85 CALM      30.25R
WINONA         PTCLDY     5   1  85 CALM      30.33R
AUSTIN         FAIR      -2  -8  78 CALM      30.27R
PRESTON        PTCLDY     2  -1  87 SW5       30.27R WCI  -7
$$
ABBREVIATIONS USED IN REMARKS
   TC - TEMPERATURES IN CELSIUS
  WCI - WIND CHILL INDEX
   HX - HEAT INDEX
  VSB - VISIBILITY
$$



USA.gov is the U.S. government's official web portal to all federal, state and local government web resources and services.